User: anonymous   Login
Location: Unspecified
(0.0000°N, 0.0000°E)
Time: 23:03:20
(UTC+02:00)
Language:

Cosmos 1833 Rocket - Orbit

View from above orbital plane
View from above orbital plane
View from above satellite
View from above satellite

Ground track
Ground track

The orbit data is extracted from the following two-line orbital elements,

1 17590U 87027B   15108.83138994  .00000194  00000-0  12101-3 0  9998
2 17590 071.0054 014.2004 0003057 054.0039 306.1367 14.16690911452182
Epoch (UTC): 18 April 2015 19:57:12
Eccentricity: 0.0003057
inclination: 71.0054°
perigee height: 834 km
apogee height: 839 km
right ascension of ascending node: 14.2004°
argument of perigee: 54.0039°
revolutions per day: 14.16690911
mean anomaly at epoch: 306.1367°
orbit number at epoch: 45218

The dashed part of the orbit path shows where the satellite is in the earth's shadow,  

DLR